Lander, WY

8:23 AM MST on February 14, 2016 (GMT -0700)
South Pass

Weather History for KFWZ - November, 2012

Change the Weather History Date:

Friday, November 23, 2012

  Actual Average (KLND) Record (KLND)
Temperature  
Mean Temperature 30 °F 27 °F  
Max Temperature 42 °F 38 °F 65 °F (1915)
Min Temperature 19 °F 16 °F -18 °F (1985)
Degree Days  
Heating Degree Days 34 38  
Month to date heating degree days 732  
Since 1 July heating degree days 1593  
Cooling Degree Days 0 0  
Month to date cooling degree days 0  
Year to date cooling degree days 472  
Moisture  
Dew Point 13 °F    
Average Humidity 45    
Maximum Humidity 64    
Minimum Humidity 21    
Precipitation  
Precipitation 0.00 in 0.02 in 0.54 in (1992)
Month to date precipitation 0.68  
Year to date precipitation 11.90  
Snow  
Snow - 0.50 in - ()
Month to date snowfall 10.0  
Since 1 July snowfall 22.5  
Since 1 September snowfall 22.5  
Snow Depth -    
Sea Level Pressure  
Sea Level Pressure 30.28 in    
Wind  
Wind Speed 8 mph ()    
Max Wind Speed 23 mph    
Max Gust Speed 31 mph    
Visibility 10.0 miles    
Events      
T = Trace of Precipitation, MM = Missing Value Source: Averaged Metar Reports

Daily Weather History Graph

Daily Weather History Graph

Search for Another Location

Airport or City:

Trip Planner

Search our weather history database for the weather conditions in past years. The results will help you decide how hot, cold, wet, or windy it might be!

Date:

Astronomy

Nov. 23, 2012 Rise Set
Actual Time 7:16 AM MST 4:46 PM MST
Civil Twilight 6:45 AM MST 5:17 PM MST
Nautical Twilight 6:11 AM MST 5:51 PM MST
Astronomical Twilight 5:37 AM MST 6:25 PM MST
Moon 2:06 PM MST (11/23) 2:33 AM MST (11/23)
Length of Visible Light 10h 31m
Length of Day
9h 29m
Waxing Gibbous, 80% of the Moon is Illuminated
Nov 23
Waxing Gibbous
Nov 28
Full
Dec 6
Last Quarter
Dec 13
New
Dec 19
First Quarter

Hourly Weather History & Observations

Time (MST) Temp. Windchill Dew Point Humidity Pressure Visibility Wind Dir Wind Speed Gust Speed Precip Events Conditions
12:15 AM 21.2 °F 12.6 °F 8.6 °F 58% - 10.0 mi WSW 6.9 mph - N/A   Clear
12:35 AM 21.2 °F 12.6 °F 8.6 °F 58% - 10.0 mi WSW 6.9 mph - N/A   Clear
12:55 AM 21.2 °F 12.6 °F 8.6 °F 58% - 10.0 mi WSW 6.9 mph - N/A   Clear
1:15 AM 19.4 °F 14.3 °F 8.6 °F 63% - 10.0 mi NW 3.5 mph - N/A   Clear
1:35 AM 19.4 °F 9.5 °F 8.6 °F 63% - 10.0 mi NNW 8.1 mph - N/A   Clear
1:55 AM 21.2 °F 10.1 °F 5.0 °F 50% - 10.0 mi North 10.4 mph - N/A   Clear
2:15 AM 28.4 °F 23.3 °F 3.2 °F 34% - 10.0 mi NW 4.6 mph - N/A   Clear
2:35 AM 26.6 °F 22.6 °F 3.2 °F 37% - 10.0 mi WSW 3.5 mph - N/A   Clear
2:55 AM 28.4 °F - 1.4 °F 31% - 10.0 mi Calm Calm - N/A   Clear
3:15 AM 24.8 °F 20.5 °F 3.2 °F 40% - 10.0 mi NNE 3.5 mph - N/A   Clear
3:35 AM 28.4 °F - 1.4 °F 31% - 10.0 mi Calm Calm - N/A   Clear
3:55 AM 28.4 °F 23.3 °F 1.4 °F 31% - 10.0 mi West 4.6 mph - N/A   Clear
4:15 AM 28.4 °F 19.7 °F 3.2 °F 34% - 10.0 mi West 9.2 mph - N/A   Clear
4:35 AM 28.4 °F 19.1 °F 5.0 °F 37% - 10.0 mi West 10.4 mph - N/A   Clear
4:55 AM 26.6 °F 16.2 °F 5.0 °F 40% - 10.0 mi West 11.5 mph - N/A   Clear
5:15 AM 30.2 °F 21.3 °F 5.0 °F 34% - 10.0 mi West 10.4 mph - N/A   Clear
5:35 AM 32.0 °F 24.2 °F 6.8 °F 35% - 10.0 mi West 9.2 mph - N/A   Clear
5:55 AM 32.0 °F 26.4 °F 8.6 °F 38% - 10.0 mi NW 5.8 mph - N/A   Clear
6:15 AM 32.0 °F - 6.8 °F 35% - 10.0 mi Calm Calm - N/A   Clear
6:35 AM 30.2 °F 25.4 °F -0.4 °F 27% - 10.0 mi NE 4.6 mph - N/A   Clear
6:55 AM 32.0 °F - -4.0 °F 21% - 10.0 mi Calm Calm - N/A   Clear
7:15 AM 30.2 °F - 1.4 °F 29% - 10.0 mi Calm Calm - N/A   Clear
7:35 AM 30.2 °F - 1.4 °F 29% - 10.0 mi Calm Calm - N/A   Clear
7:55 AM 32.0 °F - 3.2 °F 30% 30.34 in 10.0 mi Calm Calm - N/A   Clear
8:15 AM 32.0 °F 27.5 °F 5.0 °F 32% 30.34 in 10.0 mi West 4.6 mph - N/A   Clear
8:35 AM 33.8 °F 26.4 °F 10.4 °F 38% 30.34 in 10.0 mi West 9.2 mph - N/A   Clear
8:55 AM 33.8 °F 26.4 °F 12.2 °F 41% 30.35 in 10.0 mi WSW 9.2 mph - N/A   Clear
9:15 AM 35.6 °F 28.6 °F 12.2 °F 38% 30.35 in 10.0 mi West 9.2 mph - N/A   Clear
9:35 AM 35.6 °F 29.2 °F 12.2 °F 38% 30.34 in 10.0 mi WSW 8.1 mph - N/A   Clear
10:15 AM 39.2 °F 33.0 °F 14.0 °F 36% 30.34 in 10.0 mi WSW 9.2 mph - N/A   Clear
10:35 AM 39.2 °F 33.0 °F 14.0 °F 36% 30.34 in 10.0 mi West 9.2 mph - N/A   Clear
10:55 AM 41.0 °F 33.1 °F 17.6 °F 39% 30.34 in 10.0 mi WSW 15.0 mph - N/A   Clear
11:15 AM 39.2 °F 30.8 °F 19.4 °F 45% 30.33 in 10.0 mi WSW 15.0 mph 21.9 mph N/A   Clear
11:35 AM 37.4 °F 29.3 °F 17.6 °F 45% 30.32 in 10.0 mi WSW 12.7 mph 18.4 mph N/A   Clear
11:55 AM 35.6 °F 27.1 °F 19.4 °F 52% 30.32 in 10.0 mi SW 12.7 mph 17.3 mph N/A   Clear
12:15 PM 32.0 °F 22.1 °F 21.2 °F 64% 30.32 in 10.0 mi WSW 13.8 mph - N/A   Clear
12:35 PM 35.6 °F 27.5 °F 21.2 °F 56% 30.31 in 10.0 mi SW 11.5 mph 21.9 mph N/A   Clear
1:15 PM 39.2 °F - 19.4 °F 45% 30.29 in 10.0 mi Calm Calm - N/A   Clear
1:35 PM 41.0 °F 36.4 °F 19.4 °F 42% 30.29 in 10.0 mi East 6.9 mph - N/A   Clear
1:55 PM 39.2 °F 37.0 °F 19.4 °F 45% 30.29 in 10.0 mi SW 3.5 mph - N/A   Clear
2:15 PM 39.2 °F 35.9 °F 19.4 °F 45% 30.26 in 10.0 mi West 4.6 mph - N/A   Clear
2:35 PM 41.0 °F 31.9 °F 19.4 °F 42% 30.25 in 10.0 mi West 19.6 mph 24.2 mph N/A   Clear
2:55 PM 42.8 °F 34.0 °F 19.4 °F 39% 30.26 in 10.0 mi WSW 20.7 mph 29.9 mph N/A   Clear
3:15 PM 41.0 °F 32.2 °F 21.2 °F 45% 30.26 in 10.0 mi WSW 18.4 mph 27.6 mph N/A   Clear
3:35 PM 41.0 °F 33.5 °F 21.2 °F 45% 30.28 in 10.0 mi SW 13.8 mph - N/A   Clear
3:55 PM 41.0 °F 32.8 °F 21.2 °F 45% 30.28 in 10.0 mi WSW 16.1 mph - N/A   Clear
4:15 PM 39.2 °F 31.2 °F 19.4 °F 45% 30.28 in 10.0 mi WSW 13.8 mph - N/A   Clear
4:35 PM 37.4 °F 28.5 °F 19.4 °F 48% 30.28 in 10.0 mi WSW 15.0 mph - N/A   Clear
4:55 PM 35.6 °F 25.2 °F 19.4 °F 52% 30.27 in 10.0 mi WSW 18.4 mph 23.0 mph N/A   Clear
5:15 PM 35.6 °F 25.5 °F 19.4 °F 52% 30.26 in 10.0 mi West 17.3 mph 24.2 mph N/A   Clear
5:35 PM 37.4 °F 26.9 °F 19.4 °F 48% 30.26 in 10.0 mi WSW 20.7 mph 25.3 mph N/A   Clear
6:15 PM 37.4 °F 26.9 °F 19.4 °F 48% 30.25 in 10.0 mi WSW 20.7 mph - N/A   Clear
6:35 PM 37.4 °F 26.4 °F 19.4 °F 48% 30.25 in 10.0 mi WSW 23.0 mph 31.1 mph N/A   Clear
6:55 PM 35.6 °F 24.2 °F 19.4 °F 52% 30.25 in 10.0 mi WSW 21.9 mph 27.6 mph N/A   Clear
7:15 PM 35.6 °F 24.2 °F 19.4 °F 52% 30.25 in 10.0 mi WSW 21.9 mph - N/A   Clear
7:35 PM 35.6 °F 24.5 °F 19.4 °F 52% 30.25 in 10.0 mi WSW 20.7 mph 24.2 mph N/A   Clear
7:55 PM 35.6 °F 24.8 °F 19.4 °F 52% 30.24 in 10.0 mi WSW 19.6 mph 26.5 mph N/A   Clear
8:15 PM 33.8 °F 22.8 °F 19.4 °F 56% 30.25 in 10.0 mi WSW 18.4 mph - N/A   Clear
8:35 PM 32.0 °F 22.5 °F 17.6 °F 55% 30.26 in 10.0 mi WSW 12.7 mph - N/A   Clear
8:55 PM 32.0 °F 25.6 °F 17.6 °F 55% 30.27 in 10.0 mi WSW 6.9 mph - N/A   Clear
9:15 PM 32.0 °F 24.2 °F 17.6 °F 55% 30.26 in 10.0 mi WSW 9.2 mph - N/A   Clear
9:35 PM 32.0 °F 23.0 °F 17.6 °F 55% 30.25 in 10.0 mi WSW 11.5 mph - N/A   Clear
9:55 PM 32.0 °F 26.4 °F 17.6 °F 55% 30.25 in 10.0 mi SW 5.8 mph - N/A   Clear
10:15 PM 32.0 °F 26.4 °F 17.6 °F 55% 30.25 in 10.0 mi SW 5.8 mph - N/A   Clear
10:35 PM 30.2 °F 21.9 °F 17.6 °F 60% 30.23 in 10.0 mi SW 9.2 mph - N/A   Clear
11:15 PM 30.2 °F 25.4 °F 15.8 °F 55% 30.23 in 10.0 mi South 4.6 mph - N/A   Clear
11:35 PM 30.2 °F 21.3 °F 15.8 °F 55% 30.22 in 10.0 mi South 10.4 mph - N/A   Clear
11:55 PM 30.2 °F 22.6 °F 17.6 °F 60% 30.21 in 10.0 mi South 8.1 mph - N/A   Clear